Weather in Cesky Krumlov

Czech Republic     48°48′59″N   14°19′06″E
temp.,
°C
wind,
m/s
gust,
m/s
humid.,
%
clouds,
%
prec.,
mm/h
press.,
hPa
HPBL,
m
21 april, wed
wed2123:00+3sw22965 0.0 101728
02:00+2sw22975 0.0 101727
05:00+2sw22975 0.0 101726
08:00+5sw12904 0.0 1016145
11:00+11wsw23658 0.3 10151142
14:00+11w346816 2.4 10141044
17:00+12w34673 2.2 10131264
20:00+7nw1187100 3.2 101410
22 april, thu
thu2223:00+5w118991 0.3 101610
02:00+4nw119170 0.3 101710
05:00+3w119360 0.0 101710
08:00+5nne1291100 0.1 1018251
11:00+4nne2396100 0.4 1020581
14:00+4nnw1589100 0.6 1021453
17:00+8n4639100 0.0 10191293
20:00+3nw22645 0.0 102224
23 april, fri
fri2323:00+1wnw217552 0.0 102515
02:000w228333 0.0 102516
05:00−1wsw21855 0.0 102614
08:00+3w27635 0.0 1026581
11:00+8wnw474230 0.0 10241749
14:00+11nnw473441 0.0 10232316
17:00+10nnw573992 0.0 10231879
20:00+4nw226711 0.0 102620
24 april, sat
sat2423:00+1nnw11815 0.0 102812
02:00−1wnw11932 0.0 102810
05:00−1nw11940 0.0 102810
08:00+3nne01725 0.0 1027270
11:00+10nw13425 0.0 10251381
14:00+12nne243634 0.0 10221856
17:00+10nne454654 0.0 10221189
20:00+5n267077 0.0 1024165
25 april, sun
sun2523:000n229189 0.0 102851
02:00−1nw119030 0.0 102818
05:00−2n119219 0.0 102811
08:00+2ne1375100 0.0 1028363
11:00+6ne334793 0.0 10261073
14:00+9ne33380 0.0 10241271
17:00+9ne33392 0.0 10231108
20:00+3ne23675 0.0 102458